This demonstration page uses our WeatherBlox Daily Observations layout. Learn more.

Left ArrowRight Arrow

41.12389, -100.76542

Hourly Observations for December 23, 2017

Temp ( °F °C ) Dew Point ( °F °C ) Humidity (%) Winds ( mph kmh ) Pressure ( in mb ) Visibility ( mi km ) Precip ( " mm )
12:53 am 00:53 Cloudy 22 -5.6 17 -8.3 82 82 N 10 17 30.27 1025 10 16 0.00 0.00
1:53 am 01:53 Cloudy 21 -6.1 14 -10 74 74 NE 7 11 30.26 1025 10 16 0.00 0.00
2:17 am 02:17 Cloudy 20 -6.7 14 -10 78 78 NNE 7 11 30.36 1028 10 16 0.00 0.00
2:53 am 02:53 Partly Cloudy 17 -8.3 12 -11.1 80 80 NNE 3 6 30.29 1026 10 16 0.00 0.00
6:49 am 06:49 Cloudy 18 -8 12 -11 79 79 NE 12 19 30.36 1028 10 16 0.00 0.00
6:53 am 06:53 Cloudy 18 -7.8 12 -11.1 77 77 NE 9 15 30.28 1025 10 16 0.00 0.00
7:09 am 07:09 Cloudy 17 -8.3 12 -11.1 80 80 NE 12 19 30.36 1028 10 16 0.00 0.00
7:53 am 07:53 Cloudy 16 -8.9 11 -11.7 80 80 ENE 7 11 30.30 1026 10 16 0.00 0.00
8:41 am 08:41 Cloudy with Light Snow 15 -9.4 10 -12.2 80 80 NE 6 9 30.39 1029 7 11 0.00 0.03
8:53 am 08:53 Cloudy with Light Snow 15 -9.4 10 -12.2 80 80 NE 7 11 30.32 1027 4 6 0.00 0.03
9:30 am 09:30 Cloudy with Light Snow 16 -8.9 10 -12.2 77 77 NE 7 11 30.42 1030 2 3 0.00 0.03
9:53 am 09:53 Cloudy with Light Snow 16 -8.9 10 -12.2 77 77 NE 7 11 30.33 1027 2 3 0.00 0.03
10:28 am 10:28 Cloudy with Light Snow 17 -8.3 11 -11.7 77 77 NE 7 11 30.42 1030 2 3 0.00 0.03
10:40 am 10:40 Cloudy with Light Snow 17 -8.3 11 -11.7 77 77 ENE 6 9 30.42 1030 2 3 0.01 0.25
10:53 am 10:53 Cloudy with Light Snow 17 -8.3 11 -11.7 77 77 E 8 13 30.34 1027 1 2 0.01 0.25
11:17 am 11:17 Cloudy with Light Snow 18 -7.8 12 -11.1 77 77 ENE 8 13 30.39 1029 2 3 0.00 0.03
11:26 am 11:26 Cloudy with Light Snow 18 -7.8 12 -11.1 77 77 ENE 8 13 30.39 1029 3 5 0.00 0.03
11:53 am 11:53 Cloudy 18 -7.8 12 -11.1 77 77 E 7 11 30.30 1026 8 13 0.00 0.03
12:53 pm 12:53 Cloudy 20 -6.7 13 -10.6 74 74 E 9 15 30.25 1025 10 16 0.00 0.03
1:31 pm 13:31 Cloudy 20 -6.7 14 -10 78 78 SE 8 13 30.33 1027 10 16 0.00 0.00
1:53 pm 13:53 Cloudy 20 -6.7 13 -10.6 74 74 SE 8 13 30.22 1023 10 16 0.00 0.00
2:53 pm 14:53 Cloudy with Light Snow 20 -6.7 14 -10 78 78 ESE 10 17 30.21 1023 3 5 0.00 0.03
3:01 pm 15:01 Cloudy with Light Snow 20 -6.7 14 -10 78 78 ESE 8 13 30.30 1026 2 3 0.00 0.03
3:10 pm 15:10 Cloudy with Light Snow 20 -6.7 15 -9.4 81 81 E 9 15 30.30 1026 1 2 0.00 0.03
3:26 pm 15:26 Cloudy with Light Snow 20 -6.7 15 -9.4 81 81 ESE 10 17 30.30 1026 2 3 0.01 0.25
3:41 pm 15:41 Cloudy with Light Snow 20 -6.7 16 -8.9 85 85 ESE 10 17 30.30 1026 1 2 0.01 0.25
3:53 pm 15:53 Cloudy with Light Snow 20 -6.7 16 -8.9 85 85 ESE 9 15 30.20 1023 2 2 0.01 0.25
4:01 pm 16:01 Cloudy with Light Snow 20 -6.7 16 -8.9 85 85 ESE 10 17 30.30 1026 1 2 0.00 0.03
4:29 pm 16:29 Mostly Cloudy with Light Snow 20 -6.7 16 -8.9 85 85 ESE 9 15 30.30 1026 1 1 0.01 0.25
4:40 pm 16:40 Cloudy with Light Snow 20 -6.7 17 -8.3 89 89 ESE 7 11 30.30 1026 1 2 0.02 0.51
4:53 pm 16:53 Cloudy with Light Snow 20 -6.7 16 -8.9 85 85 ESE 6 9 30.20 1023 1 2 0.02 0.51
5:09 pm 17:09 Cloudy with Light Snow 20 -6.7 16 -8.9 85 85 E 6 9 30.30 1026 2 2 0.00 0.03
5:18 pm 17:18 Cloudy with Light Snow 20 -6.7 16 -8.9 85 85 E 9 15 30.30 1026 1 1 0.00 0.03
5:33 pm 17:33 Mostly Cloudy with Light Snow 20 -6.7 16 -8.9 85 85 E 8 13 30.30 1026 1 1 0.01 0.25
5:43 pm 17:43 Mostly Cloudy with Light Snow 19 -7.2 16 -8.9 88 88 ENE 8 13 30.30 1026 1 2 0.02 0.51
5:53 pm 17:53 Cloudy with Light Snow 19 -7.2 15 -9.4 84 84 ENE 9 15 30.23 1024 1 2 0.02 0.51
6:11 pm 18:11 Cloudy with Light Snow 18 -7.8 15 -9.4 88 88 ENE 12 19 30.30 1026 1 2 0.01 0.25
6:22 pm 18:22 Cloudy with Light Snow 18 -7.8 14 -10 84 84 ENE 10 17 30.33 1027 2 2 0.02 0.51
6:39 pm 18:39 Mostly Cloudy with Light Snow 18 -7.8 15 -9.4 88 88 NE 8 13 30.33 1027 1 1 0.02 0.51
6:53 pm 18:53 Mostly Cloudy with Light Snow 18 -7.8 15 -9.4 88 88 ENE 12 19 30.24 1024 1 1 0.03 0.76
7:14 pm 19:14 Mostly Cloudy with Snow 17 -8.3 14 -10 88 88 NE 10 17 30.33 1027 1 1 0.02 0.51
7:53 pm 19:53 Mostly Cloudy with Light Snow 16 -8.9 13 -10.6 88 88 NE 10 17 30.27 1025 1 1 0.07 1.78
8:33 pm 20:33 Mostly Cloudy with Light Snow 16 -8.9 12 -11.1 84 84 NNE 8 13 30.39 1029 1 1 0.04 1.02
8:49 pm 20:49 Mostly Cloudy with Light Snow 16 -9 12 -11 86 86 NNE 5 7 30.42 1030 1 1 0.05 1.27
8:53 pm 20:53 Mostly Cloudy with Light Snow 15 -9.4 12 -11.1 88 88 N 7 11 30.34 1028 1 1 0.06 1.52
9:49 pm 21:49 Mostly Cloudy with Light Snow 14 -10 10 -12 85 85 N 5 7 30.42 1030 1 2 0.06 1.52
9:53 pm 21:53 Mostly Cloudy with Light Snow 14 -10 11 -11.7 88 88 N 5 7 30.36 1028 1 2 0.06 1.52
10:45 pm 22:45 Mostly Cloudy with Light Snow 14 -10 11 -11.7 88 88 N 5 7 30.42 1030 1 1 0.03 0.76
10:53 pm 22:53 Mostly Cloudy with Light Snow 14 -10 11 -11.7 88 88 N 3 6 30.37 1028 1 1 0.04 1.02
11:00 pm 23:00 Cloudy with Light Snow 14 -10 11 -11.7 88 88 Calm 30.45 1031 1 2 0.00 0.03
11:06 pm 23:06 Cloudy with Light Snow 14 -10 10 -12.2 84 84 NNW 3 6 30.45 1031 2 3 0.00 0.03
11:11 pm 23:11 Cloudy with Light Snow 14 -10 10 -12.2 84 84 NW 5 7 30.45 1031 3 5 0.01 0.25
11:53 pm 23:53 Cloudy with Light Snow 14 -10 11 -11.7 88 88 NW 7 11 30.40 1029 3 5 0.01 0.25

Powered by AerisWeather